Tracking 25648 objects as of 17-May-2022
HD Live streaming from Space Station
objects crossing your sky now

LEMUR 2 LUCYBRYCE

Track LEMUR 2 LUCYBRYCE now!
10-day predictions
LEMUR 2 LUCYBRYCE is classified as:


NORAD ID: 42773
Int'l Code: 2017-036J
Perigee: 481.4 km
Apogee: 500.4 km
Inclination: 97.2 °
Period: 94.3 minutes
Semi major axis: 6861 km
RCS: Unknown
Launch date: June 23, 2017
Source: United States (US)
Launch site: SRIHARIKOTA (SRI)
aabbcc
Your satellite tracking list
Your tracking list is empty




NASA's NSSDC Master Catalog

Two Line Element Set (TLE):
1 42773U 17036J   22137.56789793  .00018301  00000-0  68324-3 0  9998
2 42773  97.2093 180.6016 0013855  72.5819 287.6935 15.27345580272259
Source of the keplerian elements: AFSPC